Regional Weather Roundup
Issued by NWS

Home | Current Version | Previous Version | Text Only | Print | Product List | Glossary Off
Versions: 1 2 3 4 5 6 7 8 9 10 11 12 13 14 15 16 17 18 19 20 21 22 23 24 25 26 27 28 29 30 31 32 33 34 35 36 37 38 39 40 41 42 43 44 45 46 47 48 49 50

000
ASUS43 KMKX 031000
RWRWI

WISCONSIN REGIONAL WEATHER ROUNDUP
NATIONAL WEATHER SERVICE MILWAUKEE/SULLIVAN WI
500 AM CDT THU SEP 03 2015

NOTE: "FAIR" INDICATES FEW OR NO CLOUDS BELOW 12,000 FEET WITH NO
SIGNIFICANT WEATHER AND/OR OBSTRUCTIONS TO VISIBILITY.

WIZ001-002-006>008-014>016-023>028-031100-
NORTHWEST WISCONSIN

CITY           SKY/WX    TMP DP  RH WIND       PRES   REMARKS
SUPERIOR ARPT  FOG       59  59 100 E6        29.97S VSB 1/4
ASHLAND        FOG       62  62 100 NE5       29.97S VSB 1/2
HAYWARD        FOG       62  61  96 NE5       29.96S VSB 1/4
SIREN          CLOUDY    64  63  97 NE5       29.93F FOG
CUMBERLAND     CLEAR     63  63 100 CALM      29.94S FOG
RICE LAKE      PTCLDY    64  63  96 CALM      29.94F
CHETEK         PTCLDY   N/A N/A N/A CALM      29.93F
LADYSMITH      FOG       63  62  97 NE5       29.97S VSB 1/4
EAU CLAIRE     MOCLDY    68  66  93 NE3       29.91S
MENOMONIE      CLOUDY    68  67  98 CALM      29.92S FOG
NEW RICHMOND   CLOUDY    66  66 100 E5        29.92S
OSCEOLA        PTCLDY    66  66 100 E5        29.94S
$$

WIZ003>005-009-010-017-018-031100-
NORTH CENTRAL WISCONSIN

CITY           SKY/WX    TMP DP  RH WIND       PRES   REMARKS
MANITOWISH WTR FOG       63  63 100 CALM      29.98R VSB 3/4
ARBOR VITAE    CLOUDY    64  63  94 NE3       29.98R
WOODRUFF       CLOUDY    64  63  94 NE3       29.98R
RHINELANDER    CLOUDY    64  62  93 N5        29.97S
EAGLE RIVER    CLOUDY    63  63 100 NE6       29.97R FOG
LAND O LAKES   FOG       61  61 100 NE3       29.99R VSB 3/4
PHILLIPS       CLOUDY    63  63 100 NE6       29.96S FOG
TOMAHAWK       CLOUDY    64  62  95 CALM      29.96S
MEDFORD        FOG       65  65 100 NE3       29.94F VSB 1/4
MERRILL        CLOUDY    64  64 100 CALM      29.96R
$$

WIZ029-030-035-036-043>047-031100-
CENTRAL WISCONSIN

CITY           SKY/WX    TMP DP  RH WIND       PRES   REMARKS
WAUSAU         CLOUDY    67  65  93 NE7       29.93R
MOSINEE        MOCLDY    64  64 100 N5        29.94S
MARSHFIELD     FOG       66  63  90 CALM      29.93S VSB 1
STEVENS POINT  MOCLDY    65  65  99 N3        29.93S FOG
WAUPACA        CLOUDY    70  69  98 CALM      29.91R FOG
WAUTOMA        NOT AVBL
WISC RAPIDS    FOG       69  66  90 CALM      29.93S VSB 1/2
CAMP DOUGLAS   FOG       66  66 100 CALM      29.91F VSB 1/2
$$

WIZ011>013-019>022-031-037>040-048>050-031100-
NORTHEAST WISCONSIN

CITY           SKY/WX    TMP DP  RH WIND       PRES   REMARKS
ANTIGO         CLOUDY    64  64  99 N8        29.95S
SHAWANO        NOT AVBL
OCONTO         CLOUDY    66  66 100 W3        29.88F
STURGEON BAY   CLOUDY    66  63  88 CALM      29.90S
GREEN BAY      CLOUDY    70  68  93 NW7       29.89S
MANITOWOC      LGT RAIN  72  66  83 MISG      29.86F
APPLETON       CLOUDY    70  70 100 W5        29.89R
CLINTONVILLE   CLOUDY    68  64  88 NW3       29.91S
OSHKOSH        CLOUDY    71  69  93 S3        29.90S FOG
$$

WIZ032>034-041-042-053>061-031100-
SOUTHWEST WISCONSIN

CITY           SKY/WX    TMP DP  RH WIND       PRES   REMARKS
LA CROSSE      MOCLDY    73  69  87 S3        29.90S
SPARTA         CLEAR     64  63  96 CALM      29.92S FOG
VIROQUA          N/A     66  66 100 CALM      29.94S
BOSCOBEL       FOG       69  68  96 CALM      29.92S VSB 1/2
PRAIRIE DU CHI MOCLDY    72  68  88 CALM      29.92R
PLATTEVILLE    CLOUDY    72  70  93 S3        29.95S
$$

WIZ056-057-062-063-064-067-068-031100-
SOUTH CENTRAL WISCONSIN

CITY           SKY/WX    TMP DP  RH WIND       PRES   REMARKS
REEDSBURG      PTCLDY    73  69  88 W7        29.92S
BARABOO/DELLS  CLEAR     72  66  83 SW7       29.92S
LONE ROCK      NOT AVBL
MINERAL POINT  PTCLDY    72  70  94 SW6       29.95S
MADISON        CLEAR     73  68  84 CALM      29.91F
MIDDLETON      CLEAR     71  69  92 W3        29.93S
WATERTOWN      PTCLDY    69  69 100 CALM      29.92S
MONROE         CLEAR     70  68  94 SW8       29.94F
JANESVILLE     CLEAR     70  68  94 CALM      29.93S FOG
$$

WIZ051-052-058>065-066-070>072-031100-
SOUTHEAST WISCONSIN

CITY           SKY/WX    TMP DP  RH WIND       PRES   REMARKS
MILWAUKEE      PTCLDY    73  68  84 SW10      29.92S
WAUKESHA       CLEAR     70  66  88 SW5       29.94F
MILWAUKEE/TIMM PTCLDY    72  64  78 SW5       29.92F
RACINE         PTCLDY    73  67  81 SW6       29.95R
BURLINGTON     CLEAR     68  66  93 SW3       29.94S
KENOSHA        CLEAR     72  68  87 SW6       29.95R
FOND DU LAC    CLOUDY    71  69  93 CALM      29.91F FOG
SHEBOYGAN      CLOUDY    68  66  93 SW8       29.90F
WEST BEND      MOCLDY    72  66  83 CALM      29.91F
JUNEAU         PTCLDY    70  68  93 SW3       29.93R
$$

LSZ147-162-031100-
LAKE SUPERIOR

STATION/POSITION TIME  TEMP    WIND        PRES    WAVE
                       AIR SEA DIR/SP/G            HT/PER
                 (UTC) (F)     (DEG/KT/KT) (MB)    (FT/S)
W MID LAKE BUOY  0850   57 56   20/  6/  8 1014.8F   0
DEVILS ISLAND    0900   57      50/  9/  9 1014.9F
PORT WING        0900   59      50/  4/  5 1014.9S
SAXON HARBOR     0940   59        CALM     1014.2S
$$

LMZ867-665-643>646-031100-
LAKE MICHIGAN

STATION/POSITION TIME  TEMP    WIND        PRES    WAVE
                       AIR SEA DIR/SP/G            HT/PER
                 (UTC) (F)     (DEG/KT/KT) (MB)    (FT/S)
CHAMBERS ISLAND  0900   67      80/ 11/ 16 1011.9F
S GREEN BAY BUOY 0900   66 66   20/  2/  2 1013.3R
N MID LAKE BUOY  0850   67 66   90/ 17/ 21 1011.9F   2/ 4
NORTHPORT PIER   0900   66      90/ 13/ 16 1012.2F
SISTER BAY       0911   66     100/ 12/ 17   N/A
ALGOMA LAKESHORE 0914             CALM       N/A
KEWAUNEE LAKESHO 0900   55     130/  1/  5 1011.0S
SHEBOYGAN LAKESH 0900   73     330/ 15/ 19 1013.3R
PORT WASHINGTON  0900   59     180/  2/  3 1013.2S
ATWATER BUOY     0900   59     170/  6/  8 1014.6R
MILWAUKEE LAKESH 0910   74     220/  8/  9   N/A
S MID LAKE BUOY  0850   74 71  200/ 10/ 10 1012.9F   0
KENOSHA   LAKESH 0900   76     240/  8/ 11 1013.2F
$$

TC  - TEMPERATURE IN CELSIUS
VSB - VISIBILITY IN STATUTE MILES
WCI - WIND CHILL INDEX
HX  - HEAT INDEX



USA.gov is the U.S. government's official web portal to all federal, state and local government web resources and services.